Tracking 19644 objects as of 24-Apr-2019
HD Live streaming from Space Station
objects crossing your sky now

GSAT 1

Track GSAT 1 now!
GSAT 1 is classified as:


NORAD ID: 26745
Int'l Code: 2001-015A
Perigee: 33,852.9 km
Apogee: 35,801.1 km
Inclination: 11.7 °
Period: 1,387.0 minutes
Semi major axis: 41197 km
RCS: 3.1622 m2 (large)
Launch date: April 18, 2001
Source: India (IND)
Launch site: SRIHARIKOTA (SRI)
aabbcc
Your satellite tracking list
Your tracking list is empty




NASA's NSSDC Master Catalog

Two Line Element Set (TLE):
1 26745U 01015A   19112.96096969 -.00000127  00000-0  00000+0 0  9999
2 26745  11.7097  24.3219 0236439 227.1292 316.6751  1.03821870 68399
Source of the keplerian elements: AFSPC